Weather History for Kecskemet, Hungary

Change the Weather History Date:

Saturday, November 17, 2012

  Actual Average (LHBP) Record (LHBP)
Temperature  
Mean Temperature 42 °F -  
Max Temperature 51 °F 45 °F 62 °F (2002)
Min Temperature 32 °F 32 °F 17 °F (2011)
Degree Days  
Heating Degree Days 24    
Moisture  
Dew Point 39 °F    
Average Humidity 92    
Maximum Humidity 100    
Minimum Humidity 67    
Precipitation  
Precipitation 0.00 in - - ()
Sea Level Pressure  
Sea Level Pressure 30.15 in    
Wind  
Wind Speed 4 mph ()    
Max Wind Speed 11 mph    
Max Gust Speed -    
Visibility 2.1 miles    
Events Fog    
Averages and records for this station are not official NWS values.
T = Trace of Precipitation, MM = Missing Value Source: Averaged Metar Reports

Daily Weather History Graph

Daily Weather History Graph

Search for Another Location

Airport:

Trip Planner

Search our weather history database for the weather conditions in past years. The results will help you decide how hot, cold, wet, or windy it might be!

Date:

Astronomy

Nov. 17, 2012 Rise Set
Actual Time 6:47 AM CET 4:04 PM CET
Civil Twilight 6:13 AM CET 4:37 PM CET
Nautical Twilight 5:36 AM CET 5:14 PM CET
Astronomical Twilight 5:00 AM CET 5:50 PM CET
Moon 10:18 AM CET (11/17) 7:52 PM CET (11/17)
Length of Visible Light 10h 23m
Length of Day
9h 16m
Waxing Crescent, 18% of the Moon is Illuminated
Nov 17
Waxing Crescent
Nov 20
First Quarter
Nov 28
Full
Dec 6
Last Quarter
Dec 13
New

Hourly Weather History & Observations

Time (CET) Temp. Windchill Dew Point Humidity Pressure Visibility Wind Dir Wind Speed Gust Speed Precip Events Conditions
12:15 AM 32.0 °F - 32.0 °F 100% 30.24 in 0.1 mi North 2.2 mph - N/A Fog Light Freezing Fog
12:45 AM 32.0 °F - 32.0 °F 100% 30.24 in 0.1 mi North 2.2 mph - N/A Fog Fog
1:15 AM 33.8 °F - 33.8 °F 100% 30.21 in 0.1 mi NNE 2.2 mph - N/A Fog Fog
1:45 AM 33.8 °F - 33.8 °F 100% 30.21 in 0.2 mi NNE 2.2 mph - N/A Fog Fog
2:15 AM 33.8 °F 29.7 °F 33.8 °F 100% 30.21 in 0.2 mi NNE 4.5 mph - N/A Fog Fog
2:45 AM 33.8 °F - 33.8 °F 100% 30.21 in 0.2 mi North 2.2 mph - N/A Fog Fog
3:15 AM 33.8 °F - 33.8 °F 100% 30.21 in 0.4 mi NE 2.2 mph - N/A Fog Fog
3:45 AM 33.8 °F - 33.8 °F 100% 30.21 in 0.6 mi NE 2.2 mph - N/A   Mostly Cloudy
4:00 AM - - - N/A% - 0.4 mi Variable 4.5 mph - N/A Fog Mostly Cloudy
4:15 AM 33.8 °F - 33.8 °F 100% 30.18 in 0.6 mi North 2.2 mph - N/A   Mostly Cloudy
4:45 AM 32.0 °F - 32.0 °F 100% 30.21 in 0.6 mi North 2.2 mph - N/A   Mostly Cloudy
5:15 AM 32.0 °F - 32.0 °F 100% 30.18 in 0.6 mi Calm Calm - N/A   Mostly Cloudy
5:45 AM - - - N/A% - 0.9 mi Variable 4.5 mph - N/A Fog Mostly Cloudy
6:15 AM 33.8 °F - 33.8 °F 100% 30.18 in 0.5 mi East 2.2 mph - N/A Fog Fog
6:45 AM 33.8 °F - 33.8 °F 100% 30.18 in 0.5 mi East 2.2 mph - N/A Fog Fog
7:15 AM 35.6 °F 31.8 °F 33.8 °F 93% 30.18 in 0.5 mi East 4.5 mph - N/A Fog Fog
7:45 AM 35.6 °F 31.8 °F 35.6 °F 100% 30.18 in 0.5 mi ESE 4.5 mph - N/A Fog Fog
8:15 AM 37.4 °F - 37.4 °F 100% 30.18 in 0.6 mi ESE 2.2 mph - N/A   Mostly Cloudy
8:42 AM 41.0 °F 36.5 °F 41.0 °F 100% 30.18 in 0.9 mi SE 6.7 mph - N/A   Mostly Cloudy
8:45 AM - - - N/A% - 1.9 mi East 4.5 mph - N/A   Scattered Clouds
9:15 AM 41.0 °F 36.5 °F 39.2 °F 93% 30.18 in 1.6 mi SSE 6.7 mph - N/A   Mostly Cloudy
9:37 AM 41.0 °F 36.5 °F 41.0 °F 100% 30.18 in 1.9 mi SSE 6.7 mph - N/A   Mostly Cloudy
9:45 AM 42.8 °F 38.7 °F 41.0 °F 93% 30.18 in 1.9 mi SSE 6.7 mph - N/A   Mostly Cloudy
10:15 AM 44.6 °F 39.8 °F 41.0 °F 87% 30.18 in 2.5 mi SSE 8.9 mph - N/A   Scattered Clouds
10:41 AM 46.4 °F 43.0 °F 41.0 °F 81% 30.18 in 3.1 mi SSE 6.7 mph - N/A   Mostly Cloudy
10:45 AM 46.4 °F 42.0 °F 41.0 °F 81% 30.18 in 3.1 mi SSE 8.9 mph - N/A   Mostly Cloudy
11:15 AM 48.2 °F - 41.0 °F 76% 30.15 in 3.7 mi SSE 8.9 mph - N/A   Scattered Clouds
11:45 AM - - - N/A% - 5.0 mi SSE 8.9 mph - N/A   Scattered Clouds
12:15 PM 50.0 °F - 41.0 °F 71% 30.15 in 5.0 mi SSE 11.2 mph - N/A   Partly Cloudy
12:45 PM 50.0 °F - 41.0 °F 71% 30.15 in 5.0 mi SSE 8.9 mph - N/A   Scattered Clouds
1:15 PM 50.0 °F - 41.0 °F 71% 30.12 in - SSE 8.9 mph - N/A   Clear
1:45 PM 50.0 °F - 41.0 °F 71% 30.12 in 6.2 mi SSE 8.9 mph - N/A   Partly Cloudy
2:15 PM 51.8 °F - 41.0 °F 67% 30.12 in 6.2 mi SE 8.9 mph - N/A   Partly Cloudy
2:45 PM - - - N/A% - 3.1 mi SSE 8.9 mph - N/A   Scattered Clouds
3:15 PM 50.0 °F - 42.8 °F 76% 30.12 in - SE 6.7 mph - N/A   Clear
3:45 PM 48.2 °F - 42.8 °F 82% 30.12 in 5.0 mi SE 6.7 mph - N/A   Clear
4:15 PM 46.4 °F 43.0 °F 42.8 °F 87% 30.12 in 5.0 mi SE 6.7 mph - N/A   Unknown
4:45 PM 46.4 °F 43.0 °F 42.8 °F 87% 30.12 in 3.7 mi SSE 6.7 mph - N/A   Scattered Clouds
5:15 PM 46.4 °F - 42.8 °F 87% 30.09 in 3.7 mi ESE 2.2 mph - N/A   Mostly Cloudy
5:45 PM - - - N/A% - 0.9 mi Variable 2.2 mph - N/A   Mostly Cloudy
6:15 PM 46.4 °F 44.4 °F 42.8 °F 87% 30.09 in 3.7 mi East 4.5 mph - N/A   Overcast
6:45 PM 46.4 °F 44.4 °F 42.8 °F 87% 30.09 in 3.7 mi East 4.5 mph - N/A   Overcast
7:15 PM 44.6 °F 42.3 °F 42.8 °F 93% 30.09 in 3.7 mi East 4.5 mph - N/A   Scattered Clouds
7:35 PM 42.8 °F 40.2 °F 42.8 °F 100% 30.09 in 3.1 mi ESE 4.5 mph - N/A   Clear
7:45 PM 42.8 °F 40.2 °F 42.8 °F 100% 30.09 in 2.5 mi East 4.5 mph - N/A   Clear
8:15 PM 42.8 °F - 42.8 °F 100% 30.09 in 2.5 mi ESE 2.2 mph - N/A   Clear
8:45 PM - - - N/A% - 1.9 mi Variable 4.5 mph - N/A Fog Fog
9:15 PM 42.8 °F 38.7 °F 41.0 °F 93% 30.12 in 2.5 mi ESE 6.7 mph - N/A   Clear
9:19 PM - - - N/A% - 0.9 mi Variable 2.2 mph - N/A Fog Fog
9:45 PM 42.8 °F 38.7 °F 41.0 °F 93% 30.09 in 2.5 mi ESE 6.7 mph - N/A   Clear
10:15 PM 39.2 °F - 39.2 °F 100% 30.09 in 2.5 mi East 2.2 mph - N/A   Clear
10:45 PM 39.2 °F - 39.2 °F 100% 30.09 in 1.2 mi East 2.2 mph - N/A   Clear
11:15 PM 39.2 °F - 39.2 °F 100% 30.09 in 1.2 mi ESE 2.2 mph - N/A   Clear
11:32 PM 39.2 °F 34.4 °F 39.2 °F 100% 30.09 in 0.9 mi East 6.7 mph - N/A   Clear
11:45 PM - - - N/A% - 0.5 mi North - - N/A Fog Fog